User: anonymous   Login
Location: Unspecified
(0.0000°N, 0.0000°E)
Time: 10:14:48
(UTC+01:00)
Language:

Cosmos 773 Rocket - Orbit

View from above orbital plane
View from above orbital plane
View from above satellite
View from above satellite

Ground track
Ground track

The orbit data is extracted from the following two-line orbital elements,

1 08344U 75094B   14353.58573517  .00000424  00000-0  14597-3 0  6447
2 08344 074.0581 003.3277 0020662 135.0114 004.8215 14.38869588 54716
Epoch (UTC): 19 December 2014 14:03:27
Eccentricity: 0.0020662
inclination: 74.0581°
perigee height: 747 km
apogee height: 777 km
right ascension of ascending node: 3.3277°
argument of perigee: 135.0114°
revolutions per day: 14.38869588
mean anomaly at epoch: 4.8215°
orbit number at epoch: 5471

The dashed part of the orbit path shows where the satellite is in the earth's shadow,  

DLR